Location: Cormont
(50.5693°N, 1.7416°E)
Time: 15:12:02
(UTC+00:00)

FALCON 9 DEB - Pass Details

Date: 21 October 2019
Orbit: 430 x 445 km, 53.0° (Epoch: 20 November)

Event Time Altitude Azimuth Distance (km) Brightness Sun altitude
Rises 18:20:42 0° 290° (WNW) 2,420 8.4 -15.1°
Reaches altitude 10° 18:22:52 10° 284° (WNW) 1,551 7.2 -15.5°
Maximum altitude 18:26:12 44° 211° (SSW) 618 4.1 -16.0°
Enters shadow 18:28:05 22° 149° (SSE) 1,016 4.7 -16.3°
